TimeCST,TemperatureF,Dew PointF,Humidity,Sea Level PressureIn,VisibilityMPH,Wind Direction,Wind SpeedMPH,Gust SpeedMPH,PrecipitationIn,Events,Conditions,WindDirDegrees,DateUTC
12:13 AM,32.0,31.1,96,29.98,2.0,SE,10.4,19.6,N/A,,Overcast,140,2012-12-01 06:13:00
12:34 AM,32.0,31.5,98,29.97,2.0,SE,10.4,16.1,N/A,,Overcast,140,2012-12-01 06:34:00
12:53 AM,32.0,31.6,99,29.96,2.0,SE,12.7,17.3,N/A,,Overcast,130,2012-12-01 06:53:00
1:14 AM,32.0,31.6,99,29.94,1.2,SE,13.8,18.4,N/A,,Overcast,130,2012-12-01 07:14:00
1:33 AM,32.0,31.8,99,29.94,1.0,SE,11.5,-,N/A,,Overcast,130,2012-12-01 07:33:00
1:53 AM,32.2,32.0,99,29.94,1.0,SE,10.4,16.1,N/A,,Overcast,140,2012-12-01 07:53:00
2:14 AM,32.2,32.0,99,29.94,0.8,SE,10.4,-,N/A,,Overcast,140,2012-12-01 08:14:00
2:53 AM,32.9,32.2,97,29.91,0.8,SE,10.4,16.1,N/A,,Overcast,130,2012-12-01 08:53:00
3:34 AM,33.3,32.7,98,29.88,0.8,SE,12.7,20.7,N/A,,Overcast,140,2012-12-01 09:34:00
4:13 AM,34.0,33.8,99,29.86,1.2,SE,13.8,-,N/A,,Overcast,140,2012-12-01 10:13:00
4:34 AM,34.7,34.2,98,29.83,1.8,SE,12.7,20.7,N/A,,Overcast,140,2012-12-01 10:34:00
4:53 AM,35.2,34.7,98,29.81,2.0,SSE,15.0,23.0,N/A,,Overcast,150,2012-12-01 10:53:00
5:14 AM,35.8,34.7,96,29.80,2.5,SSE,17.3,25.3,N/A,,Overcast,150,2012-12-01 11:14:00
5:33 AM,36.5,34.7,93,29.79,2.5,SE,17.3,25.3,N/A,,Mostly Cloudy,140,2012-12-01 11:33:00
5:53 AM,36.5,34.3,92,29.78,3.0,SSE,17.3,-,N/A,,Mostly Cloudy,150,2012-12-01 11:53:00
6:13 AM,36.5,34.0,91,29.77,3.0,SE,16.1,23.0,N/A,,Overcast,140,2012-12-01 12:13:00
6:34 AM,36.3,33.8,91,29.76,3.0,SSE,18.4,28.8,N/A,,Scattered Clouds,150,2012-12-01 12:34:00
6:54 AM,36.0,33.6,91,29.76,3.0,SSE,17.3,20.7,N/A,,Clear,150,2012-12-01 12:54:00
7:13 AM,36.1,33.4,90,29.77,4.0,SSE,10.4,21.9,N/A,,Clear,150,2012-12-01 13:13:00
7:34 AM,36.0,33.3,90,29.77,4.0,SSE,12.7,-,N/A,,Scattered Clouds,150,2012-12-01 13:34:00
7:53 AM,36.0,33.3,90,29.76,4.0,SE,16.1,21.9,N/A,,Mostly Cloudy,140,2012-12-01 13:53:00
8:13 AM,36.0,33.3,90,29.77,4.0,SE,11.5,-,N/A,,Mostly Cloudy,140,2012-12-01 14:13:00
8:34 AM,35.8,33.3,91,29.76,2.5,SE,13.8,19.6,N/A,,Overcast,140,2012-12-01 14:34:00
9:13 AM,36.5,34.2,91,29.76,2.5,SSE,6.9,-,N/A,,Overcast,160,2012-12-01 15:13:00
9:34 AM,37.0,35.4,94,29.74,1.8,SSE,11.5,-,N/A,,Overcast,160,2012-12-01 15:34:00
9:53 AM,37.4,35.8,94,29.74,1.2,SSE,10.4,16.1,N/A,,Overcast,160,2012-12-01 15:53:00
10:13 AM,37.6,36.5,96,29.74,0.8,SSE,11.5,-,N/A,,Overcast,160,2012-12-01 16:13:00
10:33 AM,37.8,36.9,97,29.76,0.8,South,9.2,-,N/A,,Overcast,180,2012-12-01 16:33:00
11:13 AM,38.3,37.6,97,29.74,1.0,South,8.1,-,N/A,,Overcast,180,2012-12-01 17:13:00
11:34 AM,39.2,38.3,97,29.74,1.5,South,6.9,-,N/A,,Overcast,180,2012-12-01 17:34:00
12:13 PM,40.3,38.5,93,29.72,2.0,South,3.5,-,N/A,,Overcast,190,2012-12-01 18:13:00
12:34 PM,41.4,38.8,91,29.70,2.5,SSW,8.1,-,N/A,,Overcast,210,2012-12-01 18:34:00
1:14 PM,43.7,38.7,82,29.70,4.0,SSW,8.1,-,N/A,,Haze,210,2012-12-01 19:14:00
1:33 PM,44.2,38.3,80,29.71,4.0,SW,10.4,-,N/A,,Haze,220,2012-12-01 19:33:00
1:54 PM,45.0,38.7,79,29.70,4.0,SSW,6.9,-,N/A,,Haze,200,2012-12-01 19:54:00
2:14 PM,45.5,38.5,76,29.70,5.0,SW,4.6,-,N/A,,Haze,220,2012-12-01 20:14:00
2:33 PM,46.4,38.3,73,29.70,5.0,SW,5.8,-,N/A,,Haze,230,2012-12-01 20:33:00
2:54 PM,47.1,36.5,67,29.70,7.0,WSW,5.8,-,N/A,,Clear,240,2012-12-01 20:54:00
3:13 PM,46.8,35.8,66,29.70,7.0,WSW,4.6,-,N/A,,Clear,250,2012-12-01 21:13:00
3:33 PM,45.9,35.1,66,29.72,7.0,West,6.9,-,N/A,,Clear,280,2012-12-01 21:33:00
3:54 PM,44.1,34.3,69,29.72,7.0,West,4.6,-,N/A,,Clear,260,2012-12-01 21:54:00
4:13 PM,41.9,33.3,71,29.74,7.0,WNW,3.5,-,N/A,,Clear,290,2012-12-01 22:13:00
4:33 PM,41.0,32.4,71,29.74,7.0,Calm,Calm,-,N/A,,Clear,0,2012-12-01 22:33:00
4:54 PM,38.7,32.5,79,29.75,7.0,Calm,Calm,-,N/A,,Clear,0,2012-12-01 22:54:00
5:13 PM,35.2,30.6,83,29.76,7.0,Calm,Calm,-,N/A,,Clear,0,2012-12-01 23:13:00
5:33 PM,34.2,31.5,90,29.76,7.0,Calm,Calm,-,N/A,,Clear,0,2012-12-01 23:33:00
5:54 PM,31.6,29.1,90,29.76,7.0,Calm,Calm,-,N/A,,Clear,0,2012-12-01 23:54:00
6:13 PM,31.5,28.8,90,29.77,5.0,Calm,Calm,-,N/A,,Clear,0,2012-12-02 00:13:00
6:33 PM,31.8,29.3,90,29.78,5.0,Calm,Calm,-,N/A,,Clear,0,2012-12-02 00:33:00
6:53 PM,30.7,27.9,89,29.79,5.0,West,5.8,-,N/A,,Clear,260,2012-12-02 00:53:00
7:13 PM,33.4,30.7,90,29.79,7.0,Calm,Calm,-,N/A,,Scattered Clouds,0,2012-12-02 01:13:00
7:34 PM,32.9,30.2,90,29.79,5.0,West,5.8,-,N/A,,Scattered Clouds,270,2012-12-02 01:34:00
7:53 PM,34.3,31.5,89,29.79,7.0,West,3.5,-,N/A,,Scattered Clouds,270,2012-12-02 01:53:00
8:14 PM,33.8,30.9,89,29.79,7.0,Calm,Calm,-,N/A,,Scattered Clouds,0,2012-12-02 02:14:00
8:33 PM,35.1,31.6,87,29.81,7.0,West,3.5,-,N/A,,Overcast,270,2012-12-02 02:33:00
8:53 PM,34.7,31.3,87,29.82,7.0,West,5.8,-,N/A,,Mostly Cloudy,270,2012-12-02 02:53:00
9:33 PM,36.1,31.1,82,29.81,7.0,NW,4.6,-,N/A,,Clear,310,2012-12-02 03:33:00
9:53 PM,34.3,30.2,85,29.82,7.0,WNW,3.5,-,N/A,,Clear,290,2012-12-02 03:53:00
10:13 PM,32.0,28.9,88,29.84,7.0,WSW,5.8,-,N/A,,Scattered Clouds,250,2012-12-02 04:13:00
10:34 PM,29.1,26.8,91,29.84,5.0,Calm,Calm,-,N/A,,Clear,0,2012-12-02 04:34:00
10:53 PM,28.4,26.6,93,29.85,4.0,West,5.8,-,N/A,,Clear,280,2012-12-02 04:53:00
11:13 PM,26.8,25.5,95,29.85,4.0,Calm,Calm,-,N/A,,Clear,0,2012-12-02 05:13:00
11:34 PM,27.7,26.4,95,29.86,4.0,West,3.5,-,N/A,,Clear,280,2012-12-02 05:34:00
11:53 PM,27.3,25.9,94,29.86,4.0,Calm,Calm,-,N/A,,Clear,0,2012-12-02 05:53:00